Swansboro Weather Center

Moon Phase Calendar



Online Cameras

 


      

Current Conditions in Swansboro
12/9/2022 6:42:44 PM

49°F
Feels Like 47
Clouds
Humidity
80%
Pressure
30.18"
Wind
5 mph (NE)
Dew Point
43°F
UV Index
0/10 (Low)
Visibility
6 mi

Hourly Forecast

Date & Time Fri, Dec 9
6:00 PM
Fri, Dec 9
7:00 PM
Fri, Dec 9
8:00 PM
Fri, Dec 9
9:00 PM
Fri, Dec 9
10:00 PM
Fri, Dec 9
11:00 PM
Sat, Dec 10
12:00 AM
Sat, Dec 10
1:00 AM
Sat, Dec 10
2:00 AM
Sat, Dec 10
3:00 AM
Sat, Dec 10
4:00 AM
Sat, Dec 10
5:00 AM
Sat, Dec 10
6:00 AM
Sat, Dec 10
7:00 AM
Sat, Dec 10
8:00 AM
Sat, Dec 10
9:00 AM
Sat, Dec 10
10:00 AM
Sat, Dec 10
11:00 AM
Sat, Dec 10
12:00 PM
Sat, Dec 10
1:00 PM
Sat, Dec 10
2:00 PM
Sat, Dec 10
3:00 PM
Sat, Dec 10
4:00 PM
Sat, Dec 10
5:00 PM
Sat, Dec 10
6:00 PM
Sat, Dec 10
7:00 PM
Sat, Dec 10
8:00 PM
Sat, Dec 10
9:00 PM
Sat, Dec 10
10:00 PM
Sat, Dec 10
11:00 PM
Sun, Dec 11
12:00 AM
Sun, Dec 11
1:00 AM
Sun, Dec 11
2:00 AM
Sun, Dec 11
3:00 AM
Sun, Dec 11
4:00 AM
Sun, Dec 11
5:00 AM
Sun, Dec 11
6:00 AM
Sun, Dec 11
7:00 AM
Sun, Dec 11
8:00 AM
Sun, Dec 11
9:00 AM
Sun, Dec 11
10:00 AM
Sun, Dec 11
11:00 AM
Sun, Dec 11
12:00 PM
Sun, Dec 11
1:00 PM
Sun, Dec 11
2:00 PM
Sun, Dec 11
3:00 PM
Sun, Dec 11
4:00 PM
Sun, Dec 11
5:00 PM
Condition
Clouds

Clouds

Clouds

Clear

Clear

Clear

Clouds

Clouds

Clouds

Clouds

Clouds

Clouds

Clouds

Clouds

Clouds

Clouds

Clouds

Clouds

Clouds

Clouds

Clouds

Clouds

Clouds

Clouds

Clouds

Clouds

Clouds

Clouds

Clouds

Clouds

Clouds

Clouds

Clouds

Clouds

Clouds

Clouds

Clouds

Clouds

Clouds

Clouds

Clouds

Clouds

Clouds

Clouds

Clouds

Clouds

Clouds

Clouds
Temperature 49°F49°F49°F48°F48°F47°F46°F45°F45°F45°F45°F46°F46°F47°F47°F49°F50°F52°F52°F52°F52°F52°F52°F50°F48°F47°F47°F47°F46°F46°F46°F46°F47°F46°F46°F47°F48°F48°F48°F49°F50°F52°F56°F56°F56°F57°F55°F53°F
Feels Like 46°F46°F45°F45°F44°F43°F41°F41°F41°F40°F40°F42°F41°F42°F43°F45°F46°F50°F50°F50°F50°F50°F50°F48°F45°F44°F44°F43°F43°F43°F43°F42°F43°F42°F43°F44°F45°F46°F46°F48°F49°F50°F54°F54°F55°F55°F54°F51°F
Cloudiness 15%15%12%10%8%7%14%25%100%100%90%90%86%86%70%64%76%81%79%80%80%87%90%85%77%75%57%65%71%71%75%72%82%72%79%84%87%89%100%100%100%100%100%100%100%100%100%100%
Visibility 6 mi6 mi6 mi6 mi6 mi6 mi6 mi6 mi6 mi6 mi6 mi6 mi6 mi6 mi6 mi6 mi6 mi6 mi6 mi6 mi6 mi6 mi6 mi6 mi6 mi6 mi6 mi6 mi6 mi6 mi6 mi6 mi6 mi6 mi6 mi6 mi6 mi6 mi6 mi6 mi6 mi6 mi6 mi6 mi6 mi6 mi6 mi6 mi
Precipitation 0%0%0%0%0%0%0%0%0%0%0%0%0%0%0%0%0%0%0%0%0%0%0%0%0%0%0%0%0%0%0%0%0%0%0%0%0%0%8%9%1%0%0%0%0%0%0%0%
Humidity 77%80%78%77%78%79%81%83%84%85%86%82%83%80%79%75%73%67%67%67%67%66%67%71%77%80%81%82%84%84%84%86%83%85%84%82%82%82%81%81%78%74%64%63%61%61%65%71%
Dew Point 42°F43°F42°F42°F41°F41°F40°F40°F40°F41°F41°F41°F41°F41°F41°F41°F42°F42°F41°F41°F41°F41°F41°F41°F41°F41°F42°F42°F41°F41°F42°F42°F42°F42°F42°F42°F42°F43°F43°F43°F44°F44°F44°F43°F43°F43°F44°F44°F
Pressure 30.18"30.18"30.18"30.18"30.21"30.21"30.21"30.21"30.21"30.21"30.21"30.21"30.24"30.24"30.27"30.27"30.27"30.27"30.27"30.24"30.24"30.24"30.24"30.24"30.27"30.27"30.27"30.27"30.27"30.24"30.24"30.24"30.24"30.24"30.21"30.21"30.21"30.21"30.21"30.21"30.21"30.18"30.15"30.12"30.09"30.09"30.09"30.09"
Wind Speed 8.8 mph8.4 mph8.9 mph8.5 mph8.1 mph8.5 mph8 mph8 mph7.9 mph8.5 mph7.6 mph7.5 mph8.4 mph9.2 mph8.6 mph10 mph9.9 mph10.3 mph9.9 mph9.6 mph9.8 mph9.1 mph8.5 mph7.8 mph7.4 mph7.6 mph6.9 mph7.1 mph7 mph6.6 mph6.6 mph7.1 mph6.9 mph6.9 mph6.9 mph6.4 mph5.6 mph5.3 mph4.9 mph4.2 mph3.7 mph3.1 mph3.4 mph2.9 mph4.1 mph5.1 mph4.8 mph4.9 mph
Wind
Direction
27°
NNE
24°
NNE
31°
NNE
29°
NNE
30°
NNE
31°
NNE
29°
NNE
25°
NNE
17°
NNE
20°
NNE
18°
NNE
11°
N
14°
NNE
21°
NNE
16°
NNE
27°
NNE
29°
NNE
30°
NNE
25°
NNE
21°
NNE
22°
NNE
23°
NNE
18°
NNE
14°
NNE
10°
N
12°
NNE
23°
NNE
20°
NNE
20°
NNE
28°
NNE
22°
NNE
22°
NNE
19°
NNE
10°
N
11°
N
17°
NNE
27°
NNE
18°
NNE

N
33°
NNE
24°
NNE
359°
N
336°
NNW
316°
NW
313°
NW
328°
NNW
341°
NNW
346°
NNW

Daily Forecast

Date High Low Precip. Humidity
Today
Dec 9

Rain
57 °F
47 °F
66%
68%
Saturday
Dec 10

Clouds
52 °F
45 °F
0%
67%
Sunday
Dec 11

Clouds
57 °F
46 °F
9%
64%
Monday
Dec 12

Clear
54 °F
42 °F
22%
48%
Tuesday
Dec 13

Clear
52 °F
38 °F
0%
49%
Wednesday
Dec 14

Rain
47 °F
39 °F
100%
66%
Thursday
Dec 15

Rain
51 °F
46 °F
100%
94%
Friday
Dec 16

Clouds
45 °F
41 °F
51%
87%
Saturday
Dec 17

Clouds
48 °F
34 °F
0%
37%
Sunday
Dec 18

Clouds
51 °F
34 °F
0%
38%
Monday
Dec 19

Rain
57 °F
41 °F
100%
60%
Tuesday
Dec 20

Rain
54 °F
42 °F
96%
88%
Wednesday
Dec 21

Rain
45 °F
39 °F
37%
83%
Thursday
Dec 22

Clouds
43 °F
35 °F
0%
50%
Friday
Dec 23

Clear
48 °F
35 °F
0%
47%
Saturday
Dec 24

Clear
52 °F
40 °F
0%
43%

Temperature 8-14 Day Outlook



Precipitation 8-14 Day Outlook




Quick Links
Swansboro News
Swansboro Photos
Swansboro Videos




About Us
Contact Us
Site Map
Search Site
Advertise With Us
   
Swansboro.USCoast.info
THE SWANSBORO WEBSITE

Copyright 2022, Coastal Town
Privacy    |    Legal